Probability
0 0 0 0 0 0 0 0 0 0 0 0 0 0 0 0 0 0 0 0 0 0 0 0 0 0 0 0 0 0 0 0 0 0 0 0 0 0 0 0 0 0 0
0 0 0 0 0 0 0 0 0 0 0 0 0 0 0 0 0 0 0 0 0 0 0 0 0 0 0 0 0 0 0 0 0 0 0 0 0 0 0 0 0 0 0
0 0 0 0 0 0 0 0 0 0 0 0 0 0 0 0 0 0 0 0 0 0 0 0 0 0 0 0 0 0 0 0 0 0 0 0 0 0 0 0 0 0 0
0 0 0 0 0 0 0 0 0 0 0 0 0 0 0 0 0 0 0 0 0 0 0 0 0 0 0 0 0 0 0 0 0 0 0 0 0 0 0 0 0 0 0
0 0 0 0 0 0 0 0 0 0 0 0 0 0 0 0 0 0 0 0 0 0 0 0 0 0 0 0 0 0 0 0 0 0 0 0 0 0 0 0 0 0 0
0 0 0 3 0 0 0 0 0 0 0 0 0 0 0 0 0 0 0 0 0 0 0 0 0 0 0 0 0 0 0 0 0 0 0 0 0 0 0 0 0 0 0
0 0 0 3 0 0 0 0 0 0 0 0 0 0 0 0 0 0 0 0 0 0 0 0 0 0 0 0 0 0 0 0 0 0 0 0 0 0 0 0 0 0 0
0 0 0 3 0 0 0 0 0 0 0 0 0 0 0 0 0 0 0 0 0 0 0 0 0 0 0 0 0 0 0 0 0 0 0 0 0 0 0 0 0 0 0
0 0 0 0 0 0 0 0 0 0 0 0 0 0 0 0 0 0 0 0 0 0 0 0 0 0 0 0 0 0 0 0 0 0 0 0 0 0 0 0 0 0 0
0 0 0 0 0 0 0 0 0 0 0 0 0 0 0 0 0 0 0 0 0 0 0 0 0 0 0 0 0 0 0 0 0 0 0 0 0 0 0 0 0 0 0
0 0 0 0 0 0 0 0 0 0 0 0 0 0 0 0 0 0 0 0 0 0 0 0 0 0 0 0 0 0 0 0 0 0 0 0 0 0 0 0 0 0 0
0 0 0 0 0 0 0 0 0 0 0 0 0 0 0 0 0 0 0 0 0 0 0 0 0 0 0 0 0 0 0 0 0 0 0 0 0 0 0 0 0 0 0
0 0 0 0 0 0 0 0 0 0 0 0 0 0 0 0 0 0 0 0 0 0 0 0 0 0 0 0 0 0 0 0 0 0 0 0 0 0 0 0 0 0 0
0 0 0 0 0 0 0 0 0 0 0 0 0 0 0 0 0 0 0 0 0 0 0 0 0 0 0 0 0 0 0 0 0 0 0 0 0 0 0 0 0 0 0
0 0 0 0 0 0 0 0 0 0 0 0 0 0 0 0 0 0 0 0 0 0 0 0 0 0 0 0 0 0 0 0 0 0 0 0 0 0 0 0 0 0 0
0 0 0 0 0 0 0 0 0 0 0 0 0 0 0 0 0 0 0 0 0 0 0 0 0 0 0 0 0 0 0 0 0 0 0 0 0 0 0 0 0 0 0
0 0 0 0 0 0 0 0 0 0 0 0 0 0 0 0 0 0 0 0 0 0 0 0 0 0 0 0 0 0 0 0 0 0 0 0 0 0 0 0 0 0 0
0 0 0 0 0 0 0 0 0 0 0 0 0 0 0 0 0 0 0 0 0 0 0 0 0 0 0 0 0 0 0 0 0 0 0 0 0 0 0 0 0 0 0
0 0 0 0 0 0 0 0 0 0 0 0 0 0 0 0 0 0 0 0 0 0 0 0 0 0 0 0 0 0 0 0 0 0 0 0 0 0 0 0 0 0 0
0 0 0 0 0 0 0 0 0 0 0 0 0 0 0 0 0 0 0 0 0 0 0 0 0 0 0 0 0 0 0 0 0 0 0 0 0 0 0 0 0 0 0
0 0 0 0 0 0 0 0 0 0 0 0 0 0 0 0 0 0 0 0 0 0 0 0 0 0 0 0 0 0 0 0 0 0 0 0 0 0 0 0 0 0 0
0 0 0 0 0 0 0 0 0 0 0 0 0 0 0 0 0 0 0 0 0 0 0 0 0 0 0 0 0 0 0 0 0 0 0 0 0 0 0 0 0 0 0
0 0 0 0 0 0 0 0 0 0 0 0 0 0 0 0 0 0 0 0 0 0 0 0 0 0 0 0 0 0 0 0 0 0 0 0 0 0 0 0 0 0 0
0 0 0 0 0 0 0 0 0 0 0 0 0 0 0 0 0 0 0 0 0 0 0 0 0 0 0 0 0 0 0 0 0 0 0 0 0 0 0 0 0 0 0
0 0 0 0 0 0 0 0 0 0 0 0 0 0 0 0 0 0 0 0 0 0 0 0 0 0 0 0 0 0 0 0 0 0 0 0 0 0 0 0 0 0 0
0 0 0 0 0 0 0 0 0 0 0 0 0 0 0 0 0 0 0 0 0 0 0 0 0 0 0 0 0 0 0 0 0 0 0 0 0 0 0 0 0 0 0
Height
5872 5873 5874 5875 5876 5877 5878 5878 5879 5879 5880 5880 5880 5880 5879 5879 5879 5879 5879 5878 5878 5878 5877 5877 5876 5876 5875 5874 5873 5872 5872 5871 5870 5870 5869 5868 5868 5867 5866 5866 5865 5864 5864
5870 5871 5872 5873 5874 5875 5876 5876 5877 5877 5877 5878 5878 5877 5877 5877 5877 5877 5876 5876 5876 5875 5875 5874 5873 5873 5872 5871 5870 5869 5868 5868 5867 5866 5866 5865 5864 5863 5862 5862 5861 5860 5860
5868 5869 5870 5871 5872 5873 5874 5874 5875 5875 5875 5875 5875 5875 5875 5875 5875 5874 5874 5873 5873 5872 5872 5871 5870 5870 5869 5868 5867 5866 5865 5864 5863 5863 5862 5861 5860 5859 5858 5858 5857 5856 5855
5867 5868 5869 5869 5870 5871 5871 5872 5872 5873 5873 5873 5873 5873 5873 5872 5872 5871 5871 5870 5870 5869 5869 5868 5867 5866 5865 5864 5863 5862 5861 5860 5860 5859 5858 5857 5856 5855 5854 5853 5852 5852 5851
5865 5866 5867 5868 5868 5869 5869 5870 5870 5870 5870 5870 5870 5870 5870 5869 5869 5868 5868 5867 5867 5866 5865 5865 5864 5863 5862 5861 5859 5858 5858 5857 5856 5855 5854 5853 5852 5851 5850 5849 5848 5847 5846
5863 5864 5865 5865 5866 5867 5867 5867 5868 5868 5868 5867 5867 5867 5867 5866 5866 5865 5865 5864 5863 5863 5862 5861 5860 5859 5858 5857 5855 5854 5853 5852 5851 5850 5849 5848 5847 5846 5845 5844 5843 5842 5841
5861 5862 5863 5863 5864 5864 5865 5865 5865 5865 5865 5865 5864 5864 5864 5863 5863 5862 5861 5861 5860 5859 5858 5857 5856 5855 5854 5853 5851 5850 5849 5848 5847 5845 5844 5843 5842 5841 5839 5838 5837 5836 5835
5859 5860 5860 5861 5862 5862 5862 5862 5862 5862 5862 5862 5861 5861 5860 5860 5859 5859 5858 5857 5856 5855 5854 5853 5852 5851 5849 5848 5847 5845 5844 5843 5842 5840 5839 5837 5836 5835 5834 5833 5832 5831 5830
5857 5858 5858 5859 5859 5859 5860 5860 5860 5859 5859 5859 5858 5858 5857 5856 5856 5855 5854 5853 5852 5851 5850 5848 5847 5846 5845 5843 5842 5840 5839 5838 5836 5835 5834 5832 5831 5829 5828 5827 5826 5824 5823
5854 5855 5855 5856 5856 5857 5857 5856 5856 5856 5855 5855 5854 5854 5853 5852 5852 5851 5850 5849 5848 5846 5845 5844 5843 5841 5840 5838 5837 5835 5834 5832 5831 5830 5828 5826 5825 5823 5822 5821 5819 5818 5817
5852 5852 5853 5853 5853 5853 5853 5853 5853 5852 5852 5851 5851 5850 5849 5848 5847 5846 5845 5844 5843 5842 5840 5839 5838 5836 5835 5833 5831 5830 5828 5827 5825 5824 5822 5820 5819 5817 5816 5814 5813 5811 5810
5849 5849 5849 5850 5850 5850 5850 5849 5849 5848 5848 5847 5846 5846 5845 5844 5843 5842 5840 5839 5838 5837 5835 5834 5832 5831 5829 5828 5826 5824 5823 5821 5819 5818 5816 5814 5812 5810 5809 5807 5806 5804 5803
5845 5846 5846 5846 5846 5846 5846 5845 5845 5844 5844 5843 5842 5841 5840 5839 5838 5837 5835 5834 5833 5831 5830 5828 5827 5825 5824 5822 5820 5819 5817 5815 5813 5812 5810 5807 5805 5804 5802 5800 5798 5797 5795
5841 5842 5842 5842 5842 5842 5841 5841 5840 5840 5839 5838 5837 5836 5835 5834 5833 5831 5830 5828 5827 5825 5824 5823 5821 5819 5818 5816 5814 5812 5811 5809 5807 5805 5803 5801 5799 5797 5794 5793 5791 5789 5787
5837 5837 5838 5838 5837 5837 5836 5836 5835 5835 5834 5833 5832 5831 5830 5828 5827 5826 5824 5823 5821 5820 5818 5816 5815 5813 5812 5810 5808 5806 5804 5802 5800 5798 5796 5794 5791 5789 5787 5785 5783 5781 5779
5833 5833 5833 5833 5833 5832 5831 5831 5830 5829 5828 5828 5826 5825 5824 5822 5821 5820 5818 5817 5815 5813 5812 5810 5808 5807 5805 5803 5801 5799 5797 5795 5793 5791 5789 5786 5784 5781 5779 5777 5775 5772 5770
5828 5828 5828 5827 5827 5827 5826 5825 5825 5824 5823 5822 5820 5819 5818 5816 5815 5813 5812 5810 5809 5807 5805 5803 5802 5800 5798 5796 5794 5792 5790 5788 5785 5783 5781 5779 5776 5773 5771 5768 5766 5764 5762
5822 5823 5822 5822 5821 5821 5820 5819 5819 5818 5817 5815 5814 5813 5811 5810 5808 5807 5805 5804 5802 5800 5799 5797 5795 5793 5791 5789 5787 5785 5782 5780 5778 5775 5773 5770 5768 5765 5763 5760 5757 5755 5752
5816 5816 5816 5816 5815 5815 5814 5813 5812 5811 5810 5809 5807 5806 5805 5803 5802 5800 5798 5797 5795 5793 5792 5790 5788 5786 5784 5782 5780 5777 5775 5772 5769 5767 5764 5761 5759 5756 5754 5751 5748 5745 5743
5809 5809 5810 5809 5808 5808 5807 5806 5805 5804 5803 5802 5800 5799 5798 5796 5795 5793 5791 5790 5788 5786 5785 5783 5781 5778 5776 5774 5772 5769 5767 5764 5761 5758 5755 5752 5749 5746 5743 5741 5738 5735 5732
5802 5802 5802 5802 5801 5800 5800 5799 5798 5797 5796 5795 5793 5792 5790 5789 5787 5786 5784 5782 5781 5779 5777 5775 5773 5771 5768 5766 5764 5761 5758 5755 5752 5748 5745 5742 5739 5736 5733 5730 5727 5724 5721
5794 5794 5794 5794 5793 5793 5792 5791 5791 5790 5789 5787 5786 5784 5783 5781 5780 5778 5777 5775 5773 5771 5769 5767 5765 5762 5760 5757 5755 5753 5750 5747 5743 5739 5735 5732 5729 5725 5722 5719 5716 5713 5710
5786 5786 5786 5786 5785 5785 5784 5783 5783 5782 5781 5779 5778 5776 5775 5774 5772 5770 5769 5767 5765 5763 5761 5759 5756 5754 5751 5748 5745 5743 5740 5737 5734 5731 5726 5722 5718 5714 5711 5707 5704 5701 5698
5778 5778 5778 5777 5777 5776 5776 5775 5775 5774 5773 5772 5770 5769 5767 5766 5764 5762 5761 5759 5757 5755 5753 5750 5747 5745 5742 5739 5735 5732 5729 5726 5723 5721 5717 5712 5708 5704 5700 5696 5692 5688 5685
5769 5769 5769 5769 5768 5768 5767 5767 5766 5766 5765 5763 5762 5761 5759 5758 5756 5755 5753 5751 5749 5746 5744 5741 5738 5735 5732 5729 5726 5722 5719 5715 5711 5709 5707 5703 5698 5693 5689 5685 5681 5676 5672
5760 5760 5760 5760 5760 5759 5759 5758 5758 5757 5756 5755 5754 5753 5751 5750 5748 5746 5744 5743 5740 5738 5735 5732 5729 5726 5722 5719 5715 5712 5708 5704 5701 5697 5695 5691 5687 5683 5677 5673 5668 5664 5660
Wind_Speed
12 12 11 11 11 11 12 12 12 12 12 13 13 13 13 13 14 14 14 15 15 16 16 17 17 18 18 18 19 19 19 20 20 20 20 20 20 21 21 21 21 21 21
12 12 12 12 12 12 12 12 13 13 13 13 13 13 14 14 14 15 16 16 17 17 18 18 19 19 19 20 20 20 20 20 21 20 20 21 21 21 22 22 22 22 23
11 11 11 11 11 11 12 12 12 12 12 13 13 13 14 14 15 16 17 18 18 18 19 20 20 20 20 21 21 21 21 21 21 21 21 22 22 22 23 23 23 23 24
10 11 11 11 11 11 11 12 12 12 12 13 13 14 14 15 16 17 18 18 19 19 19 20 20 21 21 22 22 22 23 23 22 22 22 23 23 23 24 24 24 24 24
10 11 11 11 11 11 11 11 12 12 13 13 14 15 16 16 17 17 18 19 19 20 20 20 21 21 22 22 23 23 23 24 24 24 24 24 24 25 25 25 25 25 25
10 11 11 11 11 11 12 12 12 13 14 15 15 16 17 17 18 18 19 19 20 21 21 21 22 22 22 23 23 24 25 25 25 26 26 26 26 26 26 26 26 27 27
10 11 11 11 12 13 13 14 14 14 15 16 16 17 17 18 18 19 19 20 21 21 22 22 22 23 23 24 25 25 26 27 27 27 27 27 28 28 28 28 28 28 28
11 12 12 12 13 13 14 14 14 15 16 17 17 17 18 18 19 20 20 21 22 22 22 23 23 24 25 25 26 27 27 28 28 28 28 28 29 29 29 29 30 30 30
12 13 13 13 14 14 14 15 16 17 17 18 18 18 19 20 20 21 21 22 23 23 24 24 25 25 26 27 27 28 28 28 29 29 29 29 30 30 30 31 31 31 32
13 13 14 14 15 16 16 17 18 18 18 18 19 19 20 21 21 22 23 23 24 25 25 26 26 27 27 28 28 28 29 29 29 30 30 31 31 31 32 32 32 33 33
14 15 15 16 16 17 18 18 18 18 19 19 20 20 21 22 22 23 24 25 25 26 27 27 28 28 28 29 29 29 29 30 30 30 31 32 32 32 33 33 34 34 34
16 16 17 17 17 18 18 19 19 20 20 21 21 22 22 23 24 25 25 26 27 27 28 28 29 29 29 29 30 30 30 31 31 31 32 32 33 33 34 34 35 35 35
18 18 18 18 19 19 20 20 21 22 22 22 23 23 24 25 25 26 27 27 28 28 29 29 29 30 30 30 30 31 31 32 32 32 32 33 34 34 35 35 35 36 36
20 20 20 20 21 21 22 22 23 23 24 24 25 25 26 26 27 27 28 29 29 29 30 30 31 31 31 31 31 32 32 32 33 33 33 34 34 35 35 36 36 37 37
22 23 23 23 23 24 24 24 25 25 25 26 26 27 27 28 28 29 29 30 30 31 31 32 32 32 32 32 32 33 33 33 33 34 34 34 35 36 36 36 37 37 38
24 25 25 25 25 26 26 27 27 27 27 27 28 28 29 30 30 30 31 31 31 32 32 33 33 33 33 33 33 34 34 34 35 35 35 35 35 36 36 37 37 37 38
27 27 27 27 27 28 28 29 29 29 29 29 29 30 31 31 32 32 32 32 32 33 33 33 33 34 34 34 34 35 35 35 36 36 36 36 36 36 37 37 38 38 38
30 29 29 29 29 29 30 31 31 31 31 31 31 32 32 33 33 33 33 33 33 33 33 34 34 34 35 35 35 36 36 36 37 37 37 37 37 37 38 38 39 39 39
33 32 32 32 32 32 32 32 32 32 33 33 33 33 33 33 33 33 34 34 34 34 34 35 35 35 36 36 37 37 37 37 38 38 38 39 39 39 39 40 40 41 41
35 35 34 34 35 35 34 34 34 34 34 34 34 34 34 34 34 34 34 35 35 35 36 36 36 36 37 38 38 38 38 38 39 39 40 40 41 41 41 42 42 43 43
36 36 36 36 36 36 35 35 35 35 35 35 35 35 35 35 35 35 36 36 36 36 37 37 37 38 38 38 39 39 39 40 40 41 42 42 43 43 43 43 44 44 44
37 37 37 37 37 37 36 36 36 36 36 35 35 36 35 35 35 36 36 36 36 37 38 38 38 38 39 39 39 40 40 41 42 43 43 44 44 45 45 44 45 45 45
38 38 38 38 38 38 38 37 37 37 37 36 36 36 36 36 36 36 36 36 37 38 39 39 39 40 40 41 41 42 42 41 41 42 43 44 45 45 45 45 46 46 47
39 39 39 38 38 38 38 37 37 37 37 37 37 36 36 36 36 36 36 37 38 39 39 39 40 41 41 42 43 43 43 43 43 42 43 44 44 45 46 47 48 48 49
39 39 38 38 38 38 38 38 38 37 37 37 37 37 36 36 36 37 37 38 38 39 40 41 42 42 43 43 43 43 44 44 45 44 43 44 45 46 46 47 48 49 50
38 38 38 38 38 38 38 38 38 37 37 37 37 37 36 36 37 37 38 38 39 39 40 42 42 43 44 44 44 45 45 45 46 46 45 45 45 46 47 48 49 50 50
Wind_Direction
232 235 240 243 247 253 258 262 266 270 273 275 278 281 284 287 289 291 292 293 294 295 296 296 296 296 295 295 294 293 293 293 292 292 290 288 288 287 286 285 284 283 281
233 238 243 247 252 257 261 264 268 272 275 278 281 283 286 288 290 292 292 293 293 293 294 294 295 295 295 294 294 294 294 293 292 292 291 289 288 287 286 285 284 283 282
236 240 245 250 254 258 262 266 270 273 276 279 282 285 287 289 291 292 292 293 293 293 293 294 294 294 294 294 294 293 293 292 291 290 290 289 288 287 285 284 283 282 281
237 242 248 252 256 261 265 268 272 275 278 281 283 286 288 289 290 291 291 291 292 292 293 293 293 293 293 293 293 292 292 291 290 289 288 288 287 286 285 284 282 281 280
241 248 252 256 258 263 268 272 275 279 282 284 286 288 289 290 291 291 291 292 292 292 293 292 292 291 291 291 291 290 290 290 289 289 288 287 287 286 285 284 283 281 280
245 251 254 257 261 265 270 274 278 281 284 287 289 290 291 291 292 292 292 292 292 292 292 291 291 290 290 290 290 289 289 289 289 289 288 287 287 286 285 284 283 282 281
248 253 257 261 265 268 271 274 277 281 283 286 288 289 290 291 292 293 293 292 292 292 292 292 291 291 290 290 290 290 289 289 289 289 288 287 286 285 285 284 283 282 281
251 256 260 264 268 271 273 276 279 282 284 286 287 288 289 290 291 292 292 292 292 292 292 292 292 292 292 291 291 291 290 289 289 289 288 287 286 285 284 283 282 281 281
254 259 263 265 269 272 276 279 281 284 286 287 288 288 289 289 290 291 291 292 291 291 291 291 291 291 291 291 291 291 290 290 289 289 288 288 287 286 285 284 283 282 281
259 262 265 268 271 274 277 279 282 284 285 286 288 289 289 290 291 291 291 291 290 290 290 290 291 291 291 290 290 291 291 290 290 289 289 288 287 286 286 285 284 283 283
264 266 268 271 274 276 278 280 282 284 285 286 287 288 289 290 291 291 291 291 290 290 290 290 291 291 291 291 290 290 291 291 290 290 289 288 288 287 287 286 285 284 283
268 270 272 273 275 277 279 281 283 284 285 286 287 288 289 290 290 291 291 290 290 289 289 289 290 291 291 291 291 291 291 291 291 290 289 289 289 288 287 287 286 285 285
270 272 273 275 276 277 279 281 283 285 286 286 287 288 289 290 290 291 291 290 289 289 289 289 290 291 291 291 291 291 292 292 292 291 290 290 289 288 288 287 287 286 285
271 273 275 276 278 279 280 282 283 285 286 287 287 288 289 290 290 291 291 291 290 289 289 290 290 291 291 291 291 291 291 292 292 292 291 291 290 289 288 288 287 286 285
272 274 276 277 278 280 282 283 284 285 286 287 287 288 289 290 291 291 292 292 291 290 290 290 290 290 290 290 291 291 292 292 292 292 291 291 290 289 289 288 287 286 285
274 276 278 279 279 281 282 283 284 285 286 286 287 288 289 290 291 291 292 292 291 290 290 290 291 291 291 292 292 293 293 293 293 293 292 292 292 291 290 288 287 286 286
274 276 279 280 281 281 282 283 285 286 286 286 287 287 288 290 290 290 290 291 291 290 291 291 291 292 292 293 293 293 294 294 294 294 293 293 292 292 291 290 288 287 286
275 276 278 280 281 282 283 284 285 285 285 286 287 287 287 289 290 290 290 291 291 291 291 291 292 293 293 294 294 295 295 295 296 295 295 294 293 292 291 290 289 287 286
275 276 277 279 281 282 283 284 284 284 284 284 286 286 287 288 289 289 290 290 290 290 291 291 292 293 294 294 294 295 295 296 296 296 295 295 294 293 292 291 289 288 287
275 276 277 278 279 281 282 283 283 283 284 284 285 285 285 286 288 289 289 289 290 290 290 291 292 293 294 295 295 295 296 297 297 297 296 295 295 294 292 291 290 289 288
274 275 276 277 278 280 281 281 282 282 283 283 284 284 285 286 287 288 289 289 289 290 291 292 293 294 295 295 295 296 297 297 297 297 296 296 295 294 293 292 291 290 289
273 274 275 276 277 279 279 280 281 282 282 282 283 283 284 285 286 288 288 288 289 290 291 292 293 294 295 296 296 296 297 297 297 297 297 297 296 295 294 293 292 291 290
272 273 274 275 276 277 278 279 279 280 280 280 282 282 283 284 286 287 288 288 289 291 292 293 294 294 295 296 297 297 297 296 296 297 297 297 297 296 295 294 294 293 292
272 272 273 274 275 276 277 277 278 278 279 280 281 282 283 284 285 287 287 288 289 291 292 294 295 296 297 297 298 298 298 298 297 297 297 297 296 296 295 295 294 293 292
271 272 272 273 274 274 275 276 277 277 277 279 280 281 282 283 285 286 287 288 290 291 293 294 296 297 298 298 298 298 298 298 298 298 298 298 298 297 296 295 294 293 293
271 271 272 272 273 273 274 275 276 276 276 277 279 280 282 283 284 286 287 289 290 292 293 295 297 298 298 299 299 299 299 299 299 299 298 298 298 297 297 296 295 294 294